Cloud_Cover
0 0 0 0 0 0 0 0 0 0 2 99 4 5 98 8 0 1 0 56 86 5 1 0 5 100 86 12 5 0 5 5 1 29 14 92 33 100 79 5 0 1 0 2
0 0 0 3 1 0 0 0 0 0 5 99 54 43 5 5 5 1 0 5 27 0 0 0 0 0 0 31 5 5 5 0 2 8 7 5 5 1 4 4 10 8 0 9
0 0 24 0 0 0 0 0 0 0 9 96 70 17 0 0 0 0 0 0 6 0 0 0 0 0 11 31 5 9 2 12 0 0 0 0 0 0 0 0 2 0 33 99
0 0 0 0 0 0 0 0 0 0 7 2 7 0 0 0 0 0 3 5 4 0 0 0 0 1 5 48 98 5 6 10 0 0 0 0 0 0 2 0 5 4 19 31
0 0 0 0 0 0 0 0 0 0 0 0 0 0 0 0 0 0 2 0 0 0 0 0 0 5 66 100 76 1 0 0 0 0 0 0 0 0 0 0 5 5 14 99
0 0 0 0 0 0 0 0 0 4 1 0 0 0 0 8 0 0 2 0 0 0 0 0 5 5 77 84 4 0 0 0 0 0 0 0 0 0 0 4 62 7 13 20
0 3 3 0 0 0 0 0 0 1 0 0 0 0 54 1 0 0 0 0 0 0 0 4 5 65 100 16 1 0 0 0 0 0 0 0 0 1 2 5 0 10 15 25
1 0 1 0 0 0 0 0 0 0 0 0 0 0 14 0 2 0 0 0 0 5 5 14 99 100 92 2 0 0 0 0 0 0 0 0 0 20 57 40 19 55 2 2
98 5 0 2 5 0 0 1 2 0 0 0 4 35 6 3 5 2 0 36 26 5 64 100 100 93 2 1 0 0 0 0 0 0 0 0 18 32 78 0 0 87 0 48
45 97 1 31 4 1 3 0 2 0 0 4 6 95 100 57 11 3 5 53 68 30 100 100 73 32 13 1 0 0 0 0 0 0 0 12 73 38 76 90 38 59 72 34
100 96 39 12 77 0 0 5 0 0 0 10 24 74 89 22 5 40 92 100 100 100 100 72 66 63 0 0 0 0 0 0 0 0 6 100 100 74 89 100 98 99 67 99
99 72 76 94 97 4 0 4 2 0 0 0 58 100 0 42 7 98 69 100 100 100 54 99 76 4 0 0 0 0 0 0 0 0 35 99 26 92 66 93 98 23 87 100
47 18 69 100 93 56 46 5 5 0 5 16 68 100 99 30 100 99 100 100 100 100 100 100 53 5 0 0 0 0 0 0 0 1 22 99 32 99 52 100 100 61 20 100
100 12 91 100 66 94 27 62 5 5 5 78 8 43 5 5 100 100 100 100 100 100 100 9 11 0 0 0 0 0 0 0 0 0 28 74 19 92 65 100 99 90 54 91
100 4 91 100 100 100 100 97 83 32 54 88 18 27 38 48 100 100 100 100 100 100 37 100 38 0 0 0 0 0 0 0 0 0 52 72 70 100 100 100 100 100 100 100
83 57 100 100 100 73 100 100 100 100 98 42 76 4 99 75 100 100 100 100 100 100 100 60 0 0 0 0 0 0 0 0 0 0 69 99 59 23 100 100 100 100 82 92
73 73 92 100 100 96 100 100 100 97 99 71 7 2 64 100 99 99 100 95 100 100 49 5 0 0 0 0 0 0 0 0 0 1 82 98 2 12 7 91 100 99 100 99
100 100 100 100 100 100 100 100 100 100 96 73 54 68 98 54 20 100 100 100 100 100 100 13 0 0 0 0 0 0 0 0 0 0 40 40 30 44 93 83 100 99 91 60
100 100 100 100 100 79 100 100 100 100 100 69 10 95 43 42 100 100 100 100 100 100 51 5 0 0 0 0 0 0 0 0 0 1 20 30 42 96 96 68 99 93 94 82
97 100 100 100 98 100 100 76 15 9 100 0 0 0 5 100 95 99 100 100 100 94 17 5 2 0 0 4 0 0 0 0 0 0 4 40 36 92 100 45 50 63 21 35
100 100 100 100 100 100 100 29 95 3 69 26 0 1 5 32 27 100 100 100 100 92 4 5 0 0 1 5 0 0 0 0 0 0 0 20 49 28 83 11 18 15 72 37
100 100 100 100 100 100 100 76 50 77 91 21 12 0 29 5 100 64 100 100 100 10 5 5 5 5 5 5 0 0 0 0 0 0 0 1 0 36 22 18 13 14 50 73
100 100 100 100 100 100 100 100 97 100 100 26 2 21 100 78 100 100 100 100 100 1 5 5 5 5 5 5 2 0 0 0 0 0 0 0 0 0 0 1 5 34 36 61
100 100 100 100 100 100 100 100 100 100 93 55 2 73 100 100 100 100 100 100 11 5 5 7 56 5 32 5 4 0 0 0 0 0 0 0 0 0 0 0 2 5 5 16
100 100 100 100 100 100 100 100 100 100 85 74 24 32 100 100 100 100 100 97 11 5 7 84 98 6 54 5 5 0 0 0 0 0 0 0 0 0 0 0 0 0 1 5
100 100 100 100 100 100 97 100 72 42 47 56 29 29 100 99 100 100 100 20 5 5 100 100 98 99 24 5 5 3 0 0 0 0 0 0 0 0 0 0 0 69 14 0